Location: Praha
(50.0755°N, 14.4378°E)
Time: 16:00:08
(UTC+01:00)

ISS - Visible Passes

Search period start: 29 February 2024 00:00
Search period end: 10 March 2024 00:00
Orbit: 414 x 422 km, 51.6° (Epoch: 29 February)

Date Brightness Start Highest point End Pass type
(mag) Time Alt. Az. Time Alt. Az. Time Alt. Az.
29 Feb -3.3 04:35:01 58° NE 04:35:01 58° NE 04:38:02 10° E visible
29 Feb -3.7 06:08:08 10° WNW 06:11:32 73° SSW 06:14:54 10° ESE visible
01 Mar -1.0 03:48:58 19° ENE 03:48:58 19° ENE 03:50:05 10° E visible
01 Mar -3.8 05:21:53 27° WNW 05:23:38 88° NNE 05:27:01 10° ESE visible
02 Mar -3.6 04:35:50 72° NE 04:35:50 72° NE 04:39:03 10° E visible
02 Mar -3.0 06:09:09 10° W 06:12:20 39° SSW 06:15:32 10° SE visible
03 Mar -1.2 03:49:48 21° E 03:49:48 21° E 03:51:03 10° E visible
03 Mar -3.5 05:22:44 25° W 05:24:27 55° SSW 05:27:46 10° SE visible
04 Mar -3.7 04:36:44 69° SSE 04:36:44 69° SSE 04:39:52 10° ESE visible
05 Mar -1.2 03:50:48 19° ESE 03:50:48 19° ESE 03:51:51 10° ESE visible
05 Mar -2.6 05:23:44 21° WSW 05:25:00 28° SW 05:27:57 10° SSE visible
06 Mar -2.7 04:37:52 33° S 04:37:52 33° S 04:40:15 10° SE visible
07 Mar -0.8 03:52:07 12° SE 03:52:07 12° SE 03:52:22 10° SE visible
07 Mar -1.7 05:25:04 13° SW 05:25:16 13° SW 05:27:00 10° SSW visible
08 Mar -1.3 04:39:26 12° S 04:39:26 12° S 04:39:53 10° S visible
